sat.trackr.live / text

‹ back to catalog

STARLINK-34806

NORAD 65065 · 2025-165K

PAYLOAD ACTIVE UNKNOWN

§ Identity

Operator
Country
US
Launch date
2025-07-31
Launch site
AFWTR
Launch vehicle
Mass (kg)
RCS (m²)

Purposes: comms

External: N2YO · Heavens-Above · Gunter

§ Orbital elements

Epoch: 2026-05-25T03:56:28.784256Z

Period
95.64 min
Inclination
97.4484°
Eccentricity
0.0001086
Mean motion
15.05659896 rev/d
Perigee alt
548.7 km
Apogee alt
550.2 km
Semi-major
6,927.6 km
B*
3.0209e-4
RAAN
222.1804°
Arg perigee
195.7557°
Mean anomaly
164.3636°
Rev number
4,629

§ Raw data

STARLINK-348061 65065U 25165K   26145.16422204  .00004304  00000+0  30209-3 0  99972 65065  97.4484 222.1804 0001086 195.7557 164.3636 15.05659896 46297

JSON: /api/v1/satellites/65065 · /tle

For live sub-satellite position, see the globe view (requires WebGL).

§ Visibility from observer

Set your observer location to see the next 7 days of passes ≥ 10°. The values pass through the URL so the page stays shareable.

No JS? Fill the form by hand. The geolocation button needs JavaScript.